, MO

(GMT )
Kansas City

Weather History for KMKC - March, 2014

Change the Weather History Date:

Thursday, March 27, 2014

  Actual Average Record
Temperature  
Mean Temperature 55 °F -  
Max Temperature 72 °F 58 °F 77 °F (2012)
Min Temperature 39 °F 39 °F 25 °F (2001)
Degree Days  
Heating Degree Days 10    
Growing Degree Days 5 (Base 50)    
Moisture  
Dew Point 42 °F    
Average Humidity 68    
Maximum Humidity 82    
Minimum Humidity 43    
Precipitation  
Precipitation 0.00 in - - ()
Sea Level Pressure  
Sea Level Pressure 29.57 in    
Wind  
Wind Speed 16 mph (SSW)    
Max Wind Speed 25 mph    
Max Gust Speed 43 mph    
Visibility 10 miles    
Events Rain , Thunderstorm    
Averages and records for this station are not official NWS values.
T = Trace of Precipitation, MM = Missing Value Source: NWS Daily Summary

Daily Weather History Graph

Daily Weather History Graph

Search for Another Location

Airport or City:

Trip Planner

Search our weather history database for the weather conditions in past years. The results will help you decide how hot, cold, wet, or windy it might be!

Date:

Astronomy

Mar. 27, 2014 Rise Set
Actual Time 7:10 AM CDT 7:37 PM CDT
Civil Twilight 6:43 AM CDT 8:04 PM CDT
Nautical Twilight 6:12 AM CDT 8:35 PM CDT
Astronomical Twilight 5:40 AM CDT 9:07 PM CDT
Moon 5:01 AM CDT (3/27) 4:27 PM CDT (3/27)
Length of Visible Light 13h 20m
Length of Day
12h 26m
Waning Crescent, 13% of the Moon is Illuminated
Mar 27
Waning Crescent
Mar 30
New
Apr 7
First Quarter
Apr 15
Full
Apr 22
Last Quarter

Hourly Weather History & Observations

Time (CDT) Temp. Windchill Dew Point Humidity Pressure Visibility Wind Dir Wind Speed Gust Speed Precip Events Conditions
12:11 AM 44.1 °F 37.4 °F 39.0 °F 82% 29.74 in 9.0 mi South 13.8 mph 20.7 mph 0.00 in   Overcast
12:21 AM 44.1 °F 37.7 °F 39.0 °F 82% 29.73 in 10.0 mi South 12.7 mph 24.2 mph 0.00 in   Overcast
12:33 AM 44.1 °F 38.6 °F 39.0 °F 82% 29.72 in 10.0 mi SSE 10.4 mph 23.0 mph 0.00 in   Overcast
12:54 AM 44.1 °F 38.1 °F 39.0 °F 82% 29.71 in 10.0 mi South 11.5 mph 27.6 mph 0.00 in   Overcast
1:34 AM 45.0 °F 37.4 °F 39.0 °F 80% 29.68 in 10.0 mi South 18.4 mph - N/A   Overcast
1:47 AM 45.0 °F 38.2 °F 39.0 °F 80% 29.68 in 10.0 mi South 15.0 mph 21.9 mph N/A   Overcast
1:54 AM 45.0 °F 37.9 °F 39.0 °F 80% 29.67 in 10.0 mi South 16.1 mph 21.9 mph N/A   Overcast
2:12 AM 45.0 °F 37.4 °F 39.0 °F 80% 29.66 in 10.0 mi South 18.4 mph 26.5 mph N/A   Overcast
2:54 AM 46.0 °F 40.2 °F 39.0 °F 76% 29.63 in 10.0 mi South 12.7 mph 21.9 mph N/A   Overcast
3:36 AM 46.9 °F - 39.0 °F 74% 29.60 in 10.0 mi South 17.3 mph - N/A   Overcast
3:54 AM 46.9 °F - 39.0 °F 74% 29.58 in 10.0 mi South 13.8 mph 24.2 mph N/A   Overcast
4:16 AM 46.9 °F - 39.9 °F 77% 29.57 in 9.0 mi South 11.5 mph - 0.00 in Rain , Thunderstorm Light Rain
4:54 AM 48.9 °F - 42.1 °F 77% 29.55 in 10.0 mi South 11.5 mph 20.7 mph 0.00 in Thunderstorm Overcast
5:08 AM 48.9 °F - 41.0 °F 74% 29.56 in 10.0 mi South 10.4 mph - N/A   Overcast
5:54 AM 50.0 °F - 43.0 °F 77% 29.54 in 10.0 mi South 10.4 mph - N/A   Overcast
6:54 AM 54.0 °F - 46.0 °F 75% 29.52 in 10.0 mi South 16.1 mph 26.5 mph 0.00 in   Overcast
7:54 AM 55.0 °F - 46.9 °F 74% 29.53 in 10.0 mi South 20.7 mph 27.6 mph N/A   Overcast
8:54 AM 55.9 °F - 48.0 °F 75% 29.51 in 10.0 mi South 23.0 mph 32.2 mph N/A   Overcast
9:54 AM 57.0 °F - 48.9 °F 74% 29.48 in 10.0 mi South 19.6 mph 36.8 mph 0.00 in Rain Light Rain
10:54 AM 57.9 °F - 50.0 °F 75% 29.45 in 10.0 mi South 20.7 mph 32.2 mph 0.00 in   Overcast
11:54 AM 59.0 °F - 51.1 °F 75% 29.43 in 10.0 mi South 19.6 mph 34.5 mph 0.00 in   Overcast
12:54 PM 62.1 °F - 52.0 °F 70% 29.41 in 10.0 mi SSW 24.2 mph 28.8 mph 0.00 in   Overcast
1:19 PM 66.9 °F - 53.1 °F 61% 29.39 in 10.0 mi SSW 19.6 mph 35.7 mph 0.00 in Rain Light Rain
1:51 PM 64.4 °F - 51.8 °F 64% 29.39 in 10.0 mi SSW 19.6 mph 28.8 mph 0.00 in Thunderstorm Mostly Cloudy
1:54 PM 64.9 °F - 52.0 °F 63% 29.39 in 10.0 mi SSW 20.7 mph 27.6 mph 0.00 in Thunderstorm Mostly Cloudy
2:54 PM 70.0 °F - 53.1 °F 55% 29.34 in 10.0 mi SSW 23.0 mph 33.4 mph 0.00 in   Scattered Clouds
3:54 PM 70.0 °F - 51.1 °F 51% 29.33 in 10.0 mi SW 24.2 mph 31.1 mph 0.00 in Rain Light Rain
4:08 PM 71.1 °F - 48.0 °F 44% 29.36 in 10.0 mi West 18.4 mph 40.3 mph 0.00 in Rain , Thunderstorm Light Rain
4:24 PM 69.1 °F - 46.9 °F 45% 29.37 in 10.0 mi West 20.7 mph 39.1 mph 0.00 in Rain Light Rain
4:54 PM 66.0 °F - 43.0 °F 43% 29.41 in 10.0 mi West 25.3 mph 42.6 mph 0.00 in Rain Light Rain
5:54 PM 60.1 °F - 39.0 °F 46% 29.49 in 10.0 mi West 15.0 mph 31.1 mph 0.00 in Rain Light Rain
6:54 PM 54.0 °F - 36.0 °F 51% 29.56 in 10.0 mi WNW 18.4 mph 26.5 mph 0.00 in   Clear
7:54 PM 48.9 °F - 33.1 °F 54% 29.64 in 10.0 mi WNW 24.2 mph 33.4 mph 0.00 in Rain Light Rain
8:54 PM 44.1 °F 37.4 °F 30.9 °F 60% 29.70 in 10.0 mi NW 13.8 mph 26.5 mph 0.00 in   Scattered Clouds
9:49 PM 42.8 °F 35.1 °F 30.2 °F 61% 29.75 in 10.0 mi WNW 16.1 mph 20.7 mph N/A   Mostly Cloudy
9:54 PM 43.0 °F 36.0 °F 30.9 °F 62% 29.76 in 10.0 mi NW 13.8 mph 24.2 mph N/A   Mostly Cloudy
10:54 PM 42.1 °F 35.7 °F 30.0 °F 62% 29.80 in 10.0 mi WNW 11.5 mph - N/A   Overcast
11:32 PM 39.9 °F 32.1 °F 28.9 °F 65% 29.82 in 10.0 mi WNW 13.8 mph 25.3 mph N/A   Partly Cloudy
11:54 PM 39.9 °F 32.9 °F 28.9 °F 65% 29.83 in 10.0 mi NW 11.5 mph 21.9 mph N/A   Clear